This demonstration page uses our WeatherBlox Daily Observations layout. Learn more.

Hourly Observations for April 8, 2017

Temp ( °F °C ) Dew Point ( °F °C ) Humidity (%) Winds ( mph kmh ) Pressure ( in mb ) Visibility ( mi km ) Precip ( " mm )
12:15 am 00:15 Clear 55 12.5 43 6.2 66 66 S 14 22 29.71 1006 10 16.0934 0 0
12:35 am 00:35 Clear 55 12.5 43 6.3 66 66 S 16 26 29.71 1006 10 16.0934 0 0
12:55 am 00:55 Clear 55 12.5 44 6.5 67 67 S 14 22 29.71 1006 10 16.0934 0 0
1:15 am 01:15 Clear 53 11.8 44 6.5 70 70 S 10 17 29.71 1006 10 16.0934 0 0
1:35 am 01:35 Clear 52 11.3 44 6.5 73 73 S 10 17 29.71 1006 10 16.0934 0 0
1:55 am 01:55 Clear 52 11 44 6.4 74 74 S 10 17 29.68 1005 10 16.0934 0 0
2:15 am 02:15 Clear 52 10.9 43 6.3 73 73 S 9 15 29.68 1005 10 16.0934 0 0
2:35 am 02:35 Clear 51 10.7 43 6.3 74 74 S 9 15 29.68 1005 10 16.0934 0 0
2:55 am 02:55 Clear 51 10.6 43 6.2 74 74 S 10 17 29.68 1005 10 16.0934 0 0
3:15 am 03:15 Clear 50 10.1 43 6 76 76 S 8 13 29.65 1004 10 16.0934 0 0
3:35 am 03:35 Clear 50 10 43 6 76 76 S 10 17 29.65 1004 10 16.0934 0 0
3:55 am 03:55 Clear 49 9.7 42 5.8 77 77 S 10 17 29.65 1004 10 16.0934 0 0
4:15 am 04:15 Clear 49 9.5 42 5.6 77 77 S 8 13 29.65 1004 10 16.0934 0 0
4:35 am 04:35 Clear 48 8.7 42 5.5 81 81 S 8 13 29.68 1005 10 16.0934 0 0
4:55 am 04:55 Clear 49 9.3 42 5.6 78 78 S 6 9 29.65 1004 10 16.0934 0 0
5:15 am 05:15 Clear 49 9.2 42 5.6 78 78 S 6 9 29.68 1005 10 16.0934 0 0
5:35 am 05:35 Clear 48 8.7 41 5.2 79 79 S 5 7 29.68 1005 10 16.0934 0 0
5:55 am 05:55 Clear 47 8.3 42 5.4 82 82 Calm 29.65 1004 10 16.0934 0 0
6:15 am 06:15 Clear 47 8.2 43 5.9 86 86 S 7 11 29.65 1004 10 16.0934 0 0
6:35 am 06:35 Clear 47 8.2 41 5.2 82 82 S 7 11 29.65 1004 10 16.0934 0 0
6:55 am 06:55 Clear 47 8.2 42 5.4 83 83 SSW 5 7 29.68 1005 10 16.0934 0 0
7:15 am 07:15 Sunny 47 8.4 42 5.4 82 82 Calm 29.68 1005 10 16.0934 0 0
7:35 am 07:35 Sunny 43 6.1 39 4 87 87 Calm 29.68 1005 10 16.0934 0 0
7:55 am 07:55 Sunny 44 6.9 40 4.6 85 85 Calm 29.68 1005 10 16.0934 0 0
8:15 am 08:15 Sunny 46 7.5 42 5.6 88 88 Calm 29.68 1005 10 16.0934 0 0
8:35 am 08:35 Sunny 50 9.8 45 7.3 85 85 Calm 29.62 1003 10 16.0934 0 0
8:55 am 08:55 Sunny 52 10.9 45 7.3 79 79 Calm 29.62 1003 10 16.0934 0 0
9:15 am 09:15 Sunny 53 11.9 46 7.6 75 75 Calm 29.62 1003 10 16.0934 0 0
9:35 am 09:35 Sunny 56 13.2 46 8 71 71 Calm 29.59 1002 10 16.0934 0 0
9:55 am 09:55 Sunny 58 14.5 46 7.7 64 64 Calm 29.59 1002 10 16.0934 0 0
10:15 am 10:15 Sunny 60 15.6 47 8.3 62 62 Calm 29.59 1002 10 16.0934 0 0
10:35 am 10:35 Sunny 61 16.1 46 8 59 59 Calm 29.56 1001 10 16.0934 0 0
10:55 am 10:55 Sunny 62 16.8 46 7.8 56 56 Calm 29.56 1001 10 16.0934 0 0
11:15 am 11:15 Sunny 64 17.5 47 8.1 54 54 Calm 29.56 1001 10 16.0934 0 0
11:35 am 11:35 Sunny 66 19 47 8.1 49 49 Calm 29.59 1002 10 16.0934 0 0
11:55 am 11:55 Sunny 67 19.7 47 8.3 48 48 Calm 29.53 1000 10 16.0934 0 0
12:15 pm 12:15 Sunny 69 20.3 45 7.3 43 43 Calm 29.53 1000 10 16.0934 0 0
12:35 pm 12:35 Sunny 70 20.9 45 7.1 41 41 E 5 7 29.53 1000 10 16.0934 0 0
12:55 pm 12:55 Sunny 72 22.4 45 7.1 37 37 E 6 9 29.53 1000 10 16.0934 0 0
1:15 pm 13:15 Sunny 74 23.5 43 6.3 33 33 ESE 9 15 29.5 999 10 16.0934 0 0
1:35 pm 13:35 Sunny 76 24.4 43 6.3 31 31 ESE 8 13 29.5 999 10 16.0934 0 0
1:55 pm 13:55 Sunny 76 24.5 43 6.3 31 31 SE 9 15 29.47 998 10 16.0934 0 0
2:15 pm 14:15 Sunny 76 24.5 43 6 30 30 E 9 15 29.47 998 10 16.0934 0 0
2:35 pm 14:35 Sunny 77 25 43 6.3 30 30 ESE 9 15 29.47 998 10 16.0934 0 0
2:55 pm 14:55 Sunny 76 24.7 44 6.8 32 32 ESE 10 17 29.47 998 10 16.0934 0 0
3:15 pm 15:15 Sunny 77 24.8 44 6.5 31 31 SE 10 17 29.47 998 10 16.0934 0 0
3:35 pm 15:35 Sunny 76 24.7 44 6.4 31 31 ESE 9 15 29.47 998 10 16.0934 0 0
3:55 pm 15:55 Sunny 77 25 43 6.1 30 30 ESE 7 11 29.47 998 10 16.0934 0 0
4:15 pm 16:15 Sunny 77 25.1 43 6.1 30 30 ESE 10 17 29.44 997 10 16.0934 0 0
4:35 pm 16:35 Sunny 78 25.4 42 5.8 28 28 ESE 7 11 29.44 997 10 16.0934 0 0
4:55 pm 16:55 Sunny 77 25.2 44 6.4 30 30 SSE 8 13 29.44 997 10 16.0934 0 0
5:15 pm 17:15 Sunny 77 25 44 6.8 31 31 S 10 17 29.44 997 10 16.0934 0 0
5:35 pm 17:35 Sunny 74 23.5 46 7.7 36 36 SSE 12 19 29.44 997 10 16.0934 0 0
5:55 pm 17:55 Sunny 73 22.6 47 8.4 40 40 SE 12 19 29.44 997 10 16.0934 0 0
6:15 pm 18:15 Sunny 72 22 47 8.5 42 42 SSE 12 19 29.47 998 10 16.0934 0 0
6:35 pm 18:35 Sunny 71 21.4 47 8.6 44 44 SSE 9 15 29.47 998 10 16.0934 0 0
6:55 pm 18:55 Sunny 70 21 47 8.1 44 44 S 8 13 29.47 998 10 16.0934 0 0
7:15 pm 19:15 Sunny 68 20.1 47 8.2 46 46 S 7 11 29.47 998 10 16.0934 0 0
7:35 pm 19:35 Sunny 66 19.1 47 8.6 51 51 S 6 9 29.47 998 10 16.0934 0 0
7:55 pm 19:55 Sunny 64 18 47 8.5 54 54 S 6 9 29.47 998 10 16.0934 0 0
8:15 pm 20:15 Clear 64 17.6 47 8.5 55 55 S 3 6 29.5 999 10 16.0934 0 0
8:35 pm 20:35 Clear 61 16 47 8.3 60 60 Calm 29.5 999 10 16.0934 0 0
8:55 pm 20:55 Clear 55 13 46 7.5 69 69 Calm 29.53 1000 10 16.0934 0 0
9:15 pm 21:15 Clear 55 12.7 45 7.2 69 69 E 3 6 29.53 1000 10 16.0934 0 0
9:35 pm 21:35 Clear 55 13 45 7.3 69 69 Calm 29.53 1000 10 16.0934 0 0
9:55 pm 21:55 Clear 55 12.5 45 7.1 70 70 Calm 29.53 1000 10 16.0934 0 0
10:15 pm 22:15 Clear 56 13.5 46 7.9 69 69 E 5 7 29.53 1000 10 16.0934 0 0
10:35 pm 22:35 Clear 54 12.2 45 7.4 73 73 ESE 3 6 29.53 1000 10 16.0934 0 0
10:55 pm 22:55 Clear 55 13 46 7.8 71 71 ESE 5 7 29.5 999 10 16.0934 0 0
11:15 pm 23:15 Clear 55 12.8 46 7.7 71 71 SE 5 7 29.5 999 10 16.0934 0 0
11:35 pm 23:35 Clear 52 11.2 45 7 76 76 SE 5 7 29.53 1000 10 16.0934 0 0
11:55 pm 23:55 Clear 52 11.3 46 7.7 79 79 SE 5 7 29.53 1000 10 16.0934 0 0

Powered by AerisWeather